Regional Weather Roundup
Issued by NWS

Home | Current Version | Previous Version | Graphics & Text | Print | Product List | Glossary On
Versions: 1 2 3 4 5 6 7 8 9 10 11 12 13 14 15 16 17 18 19 20 21 22 23 24 25 26 27 28 29 30 31 32 33 34 35 36 37 38 39 40 41 42 43 44 45 46 47 48 49 50
000
ASUS45 KBOU 281407
RWRCO

WEATHER ROUNDUP FOR COLORADO
NATIONAL WEATHER SERVICE DENVER/BOULDER CO
800 AM MDT THU MAY 28 2015

NOTE: "FAIR" INDICATES FEW OR NO CLOUDS BELOW 12000 FEET WITH NO
SIGNIFICANT WEATHER AND/OR OBSTRUCTIONS TO VISIBILITY.

COZ001>005-013-030-031-281500-
...NORTHWEST COLORADO...

CITY           SKY/WX    TMP DP  RH WIND       PRES   REMARKS
CRAIG          CLOUDY    51  45  79 CALM      30.17S
HAYDEN         CLOUDY    46  39  76 NE6       30.18S
MEEKER         MOSUNNY   48  42  80 CALM      30.19R
MOUNT WERNER   NOT AVBL
STEAMBOAT SPGS CLOUDY    46  44  93 CALM      30.19R
WALDEN         CLOUDY    45  36  70 S10       30.21S
$$

COZ006>008-011-281500-
...WEST CENTRAL VALLEYS...

CITY           SKY/WX    TMP DP  RH WIND       PRES   REMARKS
GRAND JUNCTION SUNNY     53  48  83 CALM      30.13S
MONTROSE       MOSUNNY   50  44  80 SE5       30.19R
EAGLE          PTSUNNY   46  43  87 CALM      30.23R
RIFLE          CLOUDY    50  45  83 CALM      30.17R
DELTA          MOSUNNY   55  45  71 E6        30.16S
NUCLA          MOSUNNY   52  41  66 E7        30.21S
$$

COZ017>023-064>068-281500-
...SOUTHWEST COLORADO...

CITY           SKY/WX    TMP DP  RH WIND       PRES   REMARKS
DURANGO        MOSUNNY   52  40  63 E3        30.17S
CORTEZ         SUNNY     53  40  61 N6        30.15S
PAGOSA SPRINGS MOSUNNY   50  35  55 CALM      30.24R
TELLURIDE      CLOUDY    43  35  71 CALM      30.30S
WOLF CREEK PAS NOT AVBL
$$

COZ009-010-012-014-032>034-037-058>063-281500-
...CENTRAL COLORADO...

CITY           SKY/WX    TMP DP  RH WIND       PRES   REMARKS
ASPEN          PTSUNNY   45  37  73 SE7       30.21F
BUENA VISTA    MOSUNNY   45  37  71 CALM      30.24S
COPPER MTN     PTSUNNY   37  28  70 SW9       30.39R
BERTHOUD PASS  FLURRIES  32  25  74 NW7G16    30.41S WCI  26
COTTONWOOD PAS MOSUNNY   45  32  61 CALM      30.31S
GUNNISON       MOSUNNY   43  36  75 N3        30.29S
KREMMLING      CLOUDY    46  39  76 CALM      30.24R
LEADVILLE      MOSUNNY   38  31  76 CALM      30.30R
MONARCH PASS   MOSUNNY   34  27  75 SW25      30.49S WCI  21
SALIDA         MOSUNNY   50  38  62 CALM      30.29S
SUNLIGHT       MOSUNNY   37  37 100 CALM      30.36R
WILKERSON PASS PTSUNNY   37  28  70 SW6       30.39R
$$

COZ069>075-281500-
...SAN LUIS VALLEY/SANGRE DE CRISTO MOUNTAINS...

CITY           SKY/WX    TMP DP  RH WIND       PRES   REMARKS
ALAMOSA        MOSUNNY   52  37  56 NE7       30.22F
LA VETA PASS   SUNNY    N/A N/A N/A MISG      30.33R
SAGUACHE       MOSUNNY   50  37  62 W5        30.24S
$$

COZ035-036-038>040-281500-
...NORTHERN COLORADO FRONT RANGE...

CITY           SKY/WX    TMP DP  RH WIND       PRES   REMARKS
DENVER INTL AP PTSUNNY   58  52  80 W13       30.08S
DMNS CITY PARK   N/A     59  48  65 S3        30.07F
AURORA         PTSUNNY   57  51  79 SW8       30.09F
FRONT RANGE AP PTSUNNY   59  55  88 W9        30.09S
ERIE MUNI ARPT MOSUNNY   56  54  92 N3        30.08S
BOULDER MUN AP MOSUNNY   59  52  77 NE3       30.07F
CENTENNIAL     PTSUNNY   57  50  77 CALM      30.10S
BROOMFIELD     PTSUNNY   59  48  67 CALM      30.09F
FORT COLLINS   PTSUNNY   57  54  88 SW3       30.08F
LONGMONT       PTSUNNY   60  53  78 CALM      30.09F
$$

COZ041-046-047-076>085-087-088-281500-
...PIKES PEAK/PALMER DIVIDE AND SOUTHERN FOOTHILLS...

CITY           SKY/WX    TMP DP  RH WIND       PRES   REMARKS
COLO. SPRINGS  MOSUNNY   63  42  46 N8        30.12S
A. F. ACADEMY  PTSUNNY   61  35  37 VRB2      30.12F
ELLICOTT       MOSUNNY  N/A N/A N/A N5        30.10S
FALCON         MOSUNNY   61  37  41 CALM      30.16R
FORT CARSON    MOSUNNY   60  43  54 NW8       30.09S
LIMON          FOG       50  50 100 S3        30.08S VSB 1/2
MONUMENT HILL  PTSUNNY   52  43  71 MISG      30.16S
TRINIDAD       PTSUNNY   56  44  64 W12       30.09F
$$

COZ042>045-048>051-090-091-281500-
...NORTHEAST COLORADO...

CITY           SKY/WX    TMP DP  RH WIND       PRES   REMARKS
GREELEY ARPT   PTSUNNY   57  54  88 W8        30.05F
AKRON          MOSUNNY   57  54  89 W12       30.03R
BURLINGTON     CLOUDY    62  56  80 SW18      30.02F
WRAY           CLOUDY    60  55  86 CALM      30.01F
STERLING       MOSUNNY   59  55  88 W6        30.01S
HOLYOKE        PTSUNNY   61  57  88 S9        30.01S
FORT MORGAN    FOG       54  52  94 W7        30.04S VSB 1/2
$$

COZ086-089-092>099-281500-
...SOUTHEAST COLORADO...

CITY           SKY/WX    TMP DP  RH WIND       PRES   REMARKS
PUEBLO         MOSUNNY   57  52  83 W5        30.06R
LA JUNTA       PTSUNNY   60  55  83 CALM      30.03F
LAMAR          CLOUDY    64  59  83 SW12      30.00S
SPRINGFIELD      N/A     58  57  97 S15       30.05F
$$



USA.gov is the U.S. government's official web portal to all federal, state and local government web resources and services.